Simultaneous Nadir Overpasses (SNOs) Predictions

Prediction of SNOs between METOP-B and TERRA Satellite Orbit:

Table of predicted SNOs for the next 14.0 days since TLE Epoch: 12/2/2016
Index Date (METOP-B) Time (METOP-B) Lat,Lon (METOP-B) SZA (METOP-B ) Date (TERRA) Time (TERRA) Lat,Lon (TERRA) SZA (TERRA ) Distance(km) Time Diff (sec)
1 12/03/2016 09:52:29 -81.29,-100.91 73.62 12/03/2016 09:52:36 -81.29,-101.07 73.64 2.84 7
2 12/03/2016 10:43:09 81.30, 66.70 106.42 12/03/2016 10:42:02 81.30, 66.64 106.38 1.22 67
3 12/06/2016 04:36:12 81.28, 157.51 106.62 12/06/2016 04:37:24 81.28, 157.46 106.64 1.26 72
4 12/06/2016 05:26:51 -81.30, -34.38 73.29 12/06/2016 05:26:50 -81.30, -34.56 73.31 3.03 1
5 12/09/2016 00:10:34 81.29,-135.64 106.94 12/09/2016 00:11:38 81.30,-135.74 106.96 1.86 64
6 12/
